#datetime,building,power
2023-05-14T00:00:00,pth,2.40
2023-05-14T00:02:00,pth,2.40
2023-05-14T00:03:00,pth,2.40
2023-05-14T00:05:00,pth,3.60
2023-05-14T00:06:00,pth,2.40
2023-05-14T00:08:00,pth,6.00
2023-05-14T00:10:00,pth,4.80
2023-05-14T00:11:00,pth,2.40
2023-05-14T00:13:00,pth,4.80
2023-05-14T00:15:00,pth,3.60
2023-05-14T00:17:00,pth,2.40
2023-05-14T00:18:00,pth,1.20
2023-05-14T00:20:00,pth,3.60
2023-05-14T00:21:00,pth,1.20
2023-05-14T00:22:00,pth,1.20
2023-05-14T00:24:00,pth,3.60
2023-05-14T00:26:00,pth,2.40
2023-05-14T00:28:00,pth,2.40
2023-05-14T00:29:00,pth,1.20
2023-05-14T00:30:00,pth,1.20
2023-05-14T00:32:00,pth,2.40
2023-05-14T00:34:00,pth,2.40
2023-05-14T00:36:00,pth,6.00
2023-05-14T00:37:00,pth,7.20
2023-05-14T00:39:00,pth,13.20
2023-05-14T00:40:00,pth,6.00
2023-05-14T00:42:00,pth,13.20
2023-05-14T00:43:00,pth,7.20
2023-05-14T00:45:00,pth,13.20
2023-05-14T00:47:00,pth,13.20
2023-05-14T00:48:00,pth,7.20
2023-05-14T00:50:00,pth,13.20
2023-05-14T00:52:00,pth,14.40
2023-05-14T00:54:00,pth,14.40
2023-05-14T00:55:00,pth,7.20
2023-05-14T00:57:00,pth,15.60
2023-05-14T00:59:00,pth,10.80
2023-05-14T01:00:00,pth,2.40
2023-05-14T01:02:00,pth,4.80
2023-05-14T01:04:00,pth,3.60
2023-05-14T01:06:00,pth,2.40
2023-05-14T01:07:00,pth,1.20
2023-05-14T01:09:00,pth,2.40
2023-05-14T01:11:00,pth,2.40
2023-05-14T01:13:00,pth,3.60
2023-05-14T01:15:00,pth,2.40
2023-05-14T01:16:00,pth,1.20
2023-05-14T01:18:00,pth,2.40
2023-05-14T01:19:00,pth,1.20
2023-05-14T01:21:00,pth,3.60
2023-05-14T01:22:00,pth,1.20
2023-05-14T01:24:00,pth,2.40
2023-05-14T01:25:00,pth,1.20
2023-05-14T01:27:00,pth,2.40
2023-05-14T01:29:00,pth,3.60
2023-05-14T01:31:00,pth,2.40
2023-05-14T01:32:00,pth,1.20
2023-05-14T01:34:00,pth,2.40
2023-05-14T01:35:00,pth,1.20
2023-05-14T01:37:00,pth,2.40
2023-05-14T01:39:00,pth,2.40
2023-05-14T01:41:00,pth,2.40
2023-05-14T01:43:00,pth,2.40
2023-05-14T01:45:00,pth,2.40
2023-05-14T01:47:00,pth,2.40
2023-05-14T01:49:00,pth,2.40
2023-05-14T01:50:00,pth,1.20
2023-05-14T01:51:00,pth,1.20
2023-05-14T01:53:00,pth,3.60
2023-05-14T01:55:00,pth,4.80
2023-05-14T01:57:00,pth,3.60
2023-05-14T01:59:00,pth,2.40
2023-05-14T02:00:00,pth,1.20
2023-05-14T02:01:00,pth,1.20
2023-05-14T02:03:00,pth,1.20
2023-05-14T02:04:00,pth,1.20
2023-05-14T02:05:00,pth,1.20
2023-05-14T02:07:00,pth,2.40
2023-05-14T02:09:00,pth,2.40
2023-05-14T02:11:00,pth,2.40
2023-05-14T02:13:00,pth,2.40
2023-05-14T02:15:00,pth,2.40
2023-05-14T02:17:00,pth,2.40
2023-05-14T02:19:00,pth,2.40
2023-05-14T02:20:00,pth,1.20
2023-05-14T02:21:00,pth,1.20
2023-05-14T02:23:00,pth,1.20
2023-05-14T02:25:00,pth,2.40
2023-05-14T02:27:00,pth,2.40
2023-05-14T02:28:00,pth,1.20
2023-05-14T02:29:00,pth,1.20
2023-05-14T02:30:00,pth,1.20
2023-05-14T02:32:00,pth,4.80
2023-05-14T02:33:00,pth,1.20
2023-05-14T02:35:00,pth,3.60
2023-05-14T02:36:00,pth,2.40
2023-05-14T02:38:00,pth,3.60
2023-05-14T02:40:00,pth,2.40
2023-05-14T02:41:00,pth,1.20
2023-05-14T02:43:00,pth,3.60
2023-05-14T02:44:00,pth,1.20
2023-05-14T02:45:00,pth,1.20
2023-05-14T02:47:00,pth,2.40
2023-05-14T02:48:00,pth,1.20
2023-05-14T02:49:00,pth,1.20
2023-05-14T02:51:00,pth,2.40
2023-05-14T02:53:00,pth,2.40
2023-05-14T02:54:00,pth,1.20
2023-05-14T02:56:00,pth,2.40
2023-05-14T02:58:00,pth,2.40
2023-05-14T02:59:00,pth,1.20
2023-05-14T03:01:00,pth,2.40
2023-05-14T03:03:00,pth,1.20
2023-05-14T03:05:00,pth,2.40
2023-05-14T03:07:00,pth,4.80
2023-05-14T03:09:00,pth,3.60
2023-05-14T03:10:00,pth,2.40
2023-05-14T03:12:00,pth,3.60
2023-05-14T03:13:00,pth,1.20
2023-05-14T03:15:00,pth,2.40
2023-05-14T03:16:00,pth,1.20
2023-05-14T03:19:00,pth,2.40
2023-05-14T03:20:00,pth,1.20
2023-05-14T03:22:00,pth,2.40
2023-05-14T03:23:00,pth,1.20
2023-05-14T03:25:00,pth,2.40
2023-05-14T03:27:00,pth,2.40
2023-05-14T03:28:00,pth,1.20
2023-05-14T03:29:00,pth,1.20
2023-05-14T03:30:00,pth,1.20
2023-05-14T03:32:00,pth,2.40
2023-05-14T03:34:00,pth,1.20
2023-05-14T03:36:00,pth,2.40
2023-05-14T03:37:00,pth,1.20
2023-05-14T03:39:00,pth,2.40
2023-05-14T03:40:00,pth,2.40
2023-05-14T03:42:00,pth,3.60
2023-05-14T03:44:00,pth,3.60
2023-05-14T03:46:00,pth,4.80
2023-05-14T03:47:00,pth,1.20
2023-05-14T03:49:00,pth,4.80
2023-05-14T03:50:00,pth,2.40
2023-05-14T03:52:00,pth,3.60
2023-05-14T03:54:00,pth,2.40
2023-05-14T03:56:00,pth,3.60
2023-05-14T03:58:00,pth,2.40
2023-05-14T04:00:00,pth,1.20
2023-05-14T04:01:00,pth,1.20
2023-05-14T04:03:00,pth,2.40
2023-05-14T04:04:00,pth,2.40
2023-05-14T04:06:00,pth,1.20
2023-05-14T04:08:00,pth,2.40
2023-05-14T04:09:00,pth,1.20
2023-05-14T04:10:00,pth,1.20
2023-05-14T04:12:00,pth,2.40
2023-05-14T04:14:00,pth,4.80
2023-05-14T04:15:00,pth,1.20
2023-05-14T04:17:00,pth,4.80
2023-05-14T04:19:00,pth,3.60
2023-05-14T04:21:00,pth,1.20
2023-05-14T04:22:00,pth,1.20
2023-05-14T04:23:00,pth,1.20
2023-05-14T04:25:00,pth,2.40
2023-05-14T04:28:00,pth,2.40
2023-05-14T04:30:00,pth,2.40
2023-05-14T04:32:00,pth,1.20
2023-05-14T04:34:00,pth,2.40
2023-05-14T04:36:00,pth,1.20
2023-05-14T04:38:00,pth,2.40
2023-05-14T04:39:00,pth,1.20
2023-05-14T04:40:00,pth,1.20
2023-05-14T04:42:00,pth,2.40
2023-05-14T04:43:00,pth,2.40
2023-05-14T04:45:00,pth,3.60
2023-05-14T04:46:00,pth,2.40
2023-05-14T04:48:00,pth,3.60
2023-05-14T04:49:00,pth,2.40
2023-05-14T04:51:00,pth,2.40
2023-05-14T04:53:00,pth,1.20
2023-05-14T04:54:00,pth,1.20
2023-05-14T04:56:00,pth,2.40
2023-05-14T04:57:00,pth,1.20
2023-05-14T04:59:00,pth,2.40
2023-05-14T05:01:00,pth,2.40
2023-05-14T05:02:00,pth,1.20
2023-05-14T05:04:00,pth,1.20
2023-05-14T05:06:00,pth,2.40
2023-05-14T05:08:00,pth,2.40
2023-05-14T05:10:00,pth,2.40
2023-05-14T05:11:00,pth,1.20
2023-05-14T05:13:00,pth,3.60
2023-05-14T05:15:00,pth,4.80
2023-05-14T05:17:00,pth,3.60
2023-05-14T05:18:00,pth,2.40
2023-05-14T05:20:00,pth,3.60
2023-05-14T05:22:00,pth,1.20
2023-05-14T05:24:00,pth,2.40
2023-05-14T05:25:00,pth,1.20
2023-05-14T05:27:00,pth,2.40
2023-05-14T05:29:00,pth,2.40
2023-05-14T05:31:00,pth,1.20
2023-05-14T05:33:00,pth,2.40
2023-05-14T05:34:00,pth,1.20
2023-05-14T05:35:00,pth,1.20
2023-05-14T05:36:00,pth,1.20
2023-05-14T05:38:00,pth,2.40
2023-05-14T05:40:00,pth,1.20
2023-05-14T05:41:00,pth,1.20
2023-05-14T05:43:00,pth,4.80
2023-05-14T05:45:00,pth,3.60
2023-05-14T05:46:00,pth,2.40
2023-05-14T05:48:00,pth,4.80
2023-05-14T05:50:00,pth,3.60
2023-05-14T05:52:00,pth,1.20
2023-05-14T05:54:00,pth,2.40
2023-05-14T05:55:00,pth,1.20
2023-05-14T05:56:00,pth,1.20
2023-05-14T05:57:00,pth,1.20
2023-05-14T05:59:00,pth,1.20
2023-05-14T06:01:00,pth,2.40
2023-05-14T06:02:00,pth,1.20
2023-05-14T06:04:00,pth,1.20
2023-05-14T06:06:00,pth,1.20
2023-05-14T06:07:00,pth,1.20
2023-05-14T06:09:00,pth,1.20
2023-05-14T06:10:00,pth,1.20
2023-05-14T06:12:00,pth,3.60
2023-05-14T06:14:00,pth,3.60
2023-05-14T06:15:00,pth,2.40
2023-05-14T06:17:00,pth,2.40
2023-05-14T06:19:00,pth,2.40
2023-05-14T06:22:00,pth,2.40
2023-05-14T06:25:00,pth,2.40
2023-05-14T06:28:00,pth,1.20
2023-05-14T06:29:00,pth,1.20
2023-05-14T06:31:00,pth,2.40
2023-05-14T06:33:00,pth,1.20
2023-05-14T06:35:00,pth,2.40
2023-05-14T06:37:00,pth,2.40
2023-05-14T06:39:00,pth,3.60
2023-05-14T06:41:00,pth,3.60
2023-05-14T06:42:00,pth,2.40
2023-05-14T06:44:00,pth,2.40
2023-05-14T06:45:00,pth,1.20
2023-05-14T06:47:00,pth,1.20
2023-05-14T06:49:00,pth,1.20
2023-05-14T06:51:00,pth,1.20
2023-05-14T06:52:00,pth,1.20
2023-05-14T06:55:00,pth,1.20
2023-05-14T06:56:00,pth,1.20
2023-05-14T06:58:00,pth,1.20
2023-05-14T07:00:00,pth,1.20
2023-05-14T07:01:00,pth,1.20
2023-05-14T07:02:00,pth,1.20
2023-05-14T07:03:00,pth,1.20
2023-05-14T07:05:00,pth,3.60
2023-05-14T07:07:00,pth,3.60
2023-05-14T07:09:00,pth,2.40
2023-05-14T07:10:00,pth,2.40
2023-05-14T07:11:00,pth,1.20
2023-05-14T07:14:00,pth,1.20
2023-05-14T07:16:00,pth,1.20
2023-05-14T07:18:00,pth,1.20
2023-05-14T07:19:00,pth,1.20
2023-05-14T07:21:00,pth,1.20
2023-05-14T07:22:00,pth,1.20
2023-05-14T07:24:00,pth,1.20
2023-05-14T07:26:00,pth,1.20
2023-05-14T07:28:00,pth,1.20
2023-05-14T07:30:00,pth,3.60
2023-05-14T07:32:00,pth,2.40
2023-05-14T07:33:00,pth,2.40
2023-05-14T07:35:00,pth,3.60
2023-05-14T07:37:00,pth,3.60
2023-05-14T07:39:00,pth,2.40
2023-05-14T07:40:00,pth,1.20
2023-05-14T07:42:00,pth,2.40
2023-05-14T07:45:00,pth,2.40
2023-05-14T07:47:00,pth,1.20
2023-05-14T07:50:00,pth,2.40
2023-05-14T07:52:00,pth,1.20
2023-05-14T07:54:00,pth,1.20
2023-05-14T07:56:00,pth,2.40
2023-05-14T07:58:00,pth,2.40
2023-05-14T07:59:00,pth,2.40
2023-05-14T08:01:00,pth,3.60
2023-05-14T08:03:00,pth,3.60
2023-05-14T08:05:00,pth,2.40
2023-05-14T08:06:00,pth,1.20
2023-05-14T08:08:00,pth,1.20
2023-05-14T08:09:00,pth,1.20
2023-05-14T08:11:00,pth,1.20
2023-05-14T08:13:00,pth,1.20
2023-05-14T08:14:00,pth,1.20
2023-05-14T08:17:00,pth,1.20
2023-05-14T08:18:00,pth,1.20
2023-05-14T08:20:00,pth,2.40
2023-05-14T08:22:00,pth,1.20
2023-05-14T08:24:00,pth,3.60
2023-05-14T08:25:00,pth,1.20
2023-05-14T08:26:00,pth,2.40
2023-05-14T08:28:00,pth,2.40
2023-05-14T08:30:00,pth,3.60
2023-05-14T08:31:00,pth,1.20
2023-05-14T08:33:00,pth,2.40
2023-05-14T08:36:00,pth,1.20
2023-05-14T08:38:00,pth,1.20
2023-05-14T08:39:00,pth,1.20
2023-05-14T08:41:00,pth,1.20
2023-05-14T08:44:00,pth,2.40
2023-05-14T08:46:00,pth,1.20
2023-05-14T08:48:00,pth,1.20
2023-05-14T08:50:00,pth,2.40
2023-05-14T08:51:00,pth,2.40
2023-05-14T08:53:00,pth,2.40
2023-05-14T08:54:00,pth,2.40
2023-05-14T08:55:00,pth,1.20
2023-05-14T08:57:00,pth,3.60
2023-05-14T08:59:00,pth,2.40
2023-05-14T09:00:00,pth,1.20
2023-05-14T09:02:00,pth,1.20
2023-05-14T09:04:00,pth,1.20
2023-05-14T09:06:00,pth,1.20
2023-05-14T09:08:00,pth,1.20
2023-05-14T09:10:00,pth,1.20
2023-05-14T09:12:00,pth,1.20
2023-05-14T09:13:00,pth,1.20
2023-05-14T09:15:00,pth,1.20
2023-05-14T09:17:00,pth,2.40
2023-05-14T09:18:00,pth,1.20
2023-05-14T09:20:00,pth,3.60
2023-05-14T09:22:00,pth,2.40
2023-05-14T09:23:00,pth,2.40
2023-05-14T09:24:00,pth,2.40
2023-05-14T09:26:00,pth,2.40
2023-05-14T09:28:00,pth,2.40
2023-05-14T09:30:00,pth,1.20
2023-05-14T09:32:00,pth,2.40
2023-05-14T09:34:00,pth,1.20
2023-05-14T09:36:00,pth,2.40
2023-05-14T09:39:00,pth,2.40
2023-05-14T09:41:00,pth,1.20
2023-05-14T09:43:00,pth,1.20
2023-05-14T09:44:00,pth,1.20
2023-05-14T09:46:00,pth,2.40
2023-05-14T09:48:00,pth,3.60
2023-05-14T09:49:00,pth,2.40
2023-05-14T09:50:00,pth,1.20
2023-05-14T09:52:00,pth,3.60
2023-05-14T09:54:00,pth,2.40
2023-05-14T09:56:00,pth,1.20
2023-05-14T09:57:00,pth,1.20
2023-05-14T09:59:00,pth,2.40
2023-05-14T10:01:00,pth,1.20
2023-05-14T10:02:00,pth,1.20
2023-05-14T10:03:00,pth,1.20
2023-05-14T10:05:00,pth,1.20
2023-05-14T10:07:00,pth,1.20
2023-05-14T10:08:00,pth,1.20
2023-05-14T10:09:00,pth,1.20
2023-05-14T10:10:00,pth,1.20
2023-05-14T10:12:00,pth,1.20
2023-05-14T10:13:00,pth,2.40
2023-05-14T10:15:00,pth,3.60
2023-05-14T10:16:00,pth,2.40
2023-05-14T10:18:00,pth,3.60
2023-05-14T10:19:00,pth,2.40
2023-05-14T10:21:00,pth,3.60
2023-05-14T10:22:00,pth,1.20
2023-05-14T10:24:00,pth,1.20
2023-05-14T10:26:00,pth,1.20
2023-05-14T10:27:00,pth,1.20
2023-05-14T10:29:00,pth,2.40
2023-05-14T10:31:00,pth,2.40
2023-05-14T10:33:00,pth,1.20
2023-05-14T10:35:00,pth,2.40
2023-05-14T10:37:00,pth,1.20
2023-05-14T10:39:00,pth,1.20
2023-05-14T10:40:00,pth,1.20
2023-05-14T10:42:00,pth,2.40
2023-05-14T10:43:00,pth,2.40
2023-05-14T10:44:00,pth,1.20
2023-05-14T10:45:00,pth,2.40
2023-05-14T10:47:00,pth,2.40
2023-05-14T10:49:00,pth,3.60
2023-05-14T10:50:00,pth,1.20
2023-05-14T10:52:00,pth,2.40
2023-05-14T10:55:00,pth,2.40
2023-05-14T10:57:00,pth,1.20
2023-05-14T10:59:00,pth,1.20
2023-05-14T11:00:00,pth,1.20
2023-05-14T11:02:00,pth,1.20
2023-05-14T11:04:00,pth,1.20
2023-05-14T11:06:00,pth,1.20
2023-05-14T11:07:00,pth,1.20
2023-05-14T11:08:00,pth,1.20
2023-05-14T11:10:00,pth,1.20
2023-05-14T11:12:00,pth,1.20
2023-05-14T11:13:00,pth,2.40
2023-05-14T11:15:00,pth,3.60
2023-05-14T11:17:00,pth,2.40
2023-05-14T11:18:00,pth,2.40
2023-05-14T11:20:00,pth,2.40
2023-05-14T11:21:00,pth,1.20
2023-05-14T11:23:00,pth,1.20
2023-05-14T11:25:00,pth,2.40
2023-05-14T11:27:00,pth,1.20
2023-05-14T11:29:00,pth,1.20
2023-05-14T11:30:00,pth,1.20
2023-05-14T11:31:00,pth,1.20
2023-05-14T11:33:00,pth,2.40
2023-05-14T11:35:00,pth,3.60
2023-05-14T11:37:00,pth,2.40
2023-05-14T11:39:00,pth,1.20
2023-05-14T11:41:00,pth,1.20
2023-05-14T11:43:00,pth,1.20
2023-05-14T11:45:00,pth,3.60
2023-05-14T11:47:00,pth,3.60
2023-05-14T11:49:00,pth,3.60
2023-05-14T11:51:00,pth,3.60
2023-05-14T11:53:00,pth,4.80
2023-05-14T11:55:00,pth,12.00
2023-05-14T11:57:00,pth,12.00
2023-05-14T11:58:00,pth,7.20
2023-05-14T12:00:00,pth,12.00
2023-05-14T12:02:00,pth,13.20
2023-05-14T12:04:00,pth,14.40
2023-05-14T12:05:00,pth,6.00
2023-05-14T12:07:00,pth,13.20
2023-05-14T12:09:00,pth,13.20
2023-05-14T12:10:00,pth,7.20
2023-05-14T12:12:00,pth,14.40
2023-05-14T12:14:00,pth,12.00
2023-05-14T12:16:00,pth,6.00
2023-05-14T12:18:00,pth,13.20
2023-05-14T12:19:00,pth,6.00
2023-05-14T12:21:00,pth,9.60
2023-05-14T12:23:00,pth,10.80
2023-05-14T12:24:00,pth,7.20
2023-05-14T12:26:00,pth,10.80
2023-05-14T12:27:00,pth,2.40
2023-05-14T12:28:00,pth,7.20
2023-05-14T12:30:00,pth,14.40
2023-05-14T12:32:00,pth,7.20
2023-05-14T12:33:00,pth,8.40
2023-05-14T12:34:00,pth,7.20
2023-05-14T12:36:00,pth,13.20
2023-05-14T12:37:00,pth,1.20
2023-05-14T12:39:00,pth,12.00
2023-05-14T12:41:00,pth,10.80
2023-05-14T12:42:00,pth,1.20
2023-05-14T12:44:00,pth,12.00
2023-05-14T12:46:00,pth,10.80
2023-05-14T12:48:00,pth,4.80
2023-05-14T12:50:00,pth,13.20
2023-05-14T12:51:00,pth,3.60
2023-05-14T12:52:00,pth,1.20
2023-05-14T12:54:00,pth,1.20
2023-05-14T12:55:00,pth,2.40
2023-05-14T12:57:00,pth,2.40
2023-05-14T13:00:00,pth,2.40
2023-05-14T13:01:00,pth,1.20
2023-05-14T13:02:00,pth,1.20
2023-05-14T13:04:00,pth,1.20
2023-05-14T13:05:00,pth,1.20
2023-05-14T13:06:00,pth,1.20
2023-05-14T13:07:00,pth,1.20
2023-05-14T13:09:00,pth,1.20
2023-05-14T13:11:00,pth,2.40
2023-05-14T13:13:00,pth,1.20
2023-05-14T13:16:00,pth,2.40
2023-05-14T13:18:00,pth,1.20
2023-05-14T13:19:00,pth,1.20
2023-05-14T13:21:00,pth,2.40
2023-05-14T13:23:00,pth,1.20
2023-05-14T13:25:00,pth,2.40
2023-05-14T13:27:00,pth,1.20
2023-05-14T13:29:00,pth,2.40
2023-05-14T13:31:00,pth,2.40
2023-05-14T13:32:00,pth,2.40
2023-05-14T13:34:00,pth,4.80
2023-05-14T13:36:00,pth,3.60
2023-05-14T13:37:00,pth,1.20
2023-05-14T13:39:00,pth,2.40
2023-05-14T13:40:00,pth,1.20
2023-05-14T13:41:00,pth,1.20
2023-05-14T13:43:00,pth,2.40
2023-05-14T13:45:00,pth,1.20
2023-05-14T13:46:00,pth,1.20
2023-05-14T13:48:00,pth,2.40
2023-05-14T13:49:00,pth,1.20
2023-05-14T13:51:00,pth,2.40
2023-05-14T13:52:00,pth,1.20
2023-05-14T13:54:00,pth,1.20
2023-05-14T13:56:00,pth,2.40
2023-05-14T13:57:00,pth,1.20
2023-05-14T13:58:00,pth,1.20
2023-05-14T14:00:00,pth,4.80
2023-05-14T14:02:00,pth,13.20
2023-05-14T14:03:00,pth,7.20
2023-05-14T14:05:00,pth,13.20
2023-05-14T14:06:00,pth,6.00
2023-05-14T14:08:00,pth,14.40
2023-05-14T14:10:00,pth,14.40
2023-05-14T14:11:00,pth,6.00
2023-05-14T14:13:00,pth,14.40
2023-05-14T14:15:00,pth,14.40
2023-05-14T14:17:00,pth,14.40
2023-05-14T14:18:00,pth,7.20
2023-05-14T14:20:00,pth,13.20
2023-05-14T14:21:00,pth,6.00
2023-05-14T14:22:00,pth,7.20
2023-05-14T14:24:00,pth,13.20
2023-05-14T14:26:00,pth,12.00
2023-05-14T14:27:00,pth,7.20
2023-05-14T14:29:00,pth,14.40
2023-05-14T14:30:00,pth,6.00
2023-05-14T14:31:00,pth,7.20
2023-05-14T14:33:00,pth,13.20
2023-05-14T14:35:00,pth,8.40
2023-05-14T14:37:00,pth,13.20
2023-05-14T14:39:00,pth,12.00
2023-05-14T14:41:00,pth,13.20
2023-05-14T14:43:00,pth,13.20
2023-05-14T14:44:00,pth,3.60
2023-05-14T14:46:00,pth,10.80
2023-05-14T14:47:00,pth,7.20
2023-05-14T14:49:00,pth,12.00
2023-05-14T14:50:00,pth,2.40
2023-05-14T14:52:00,pth,13.20
2023-05-14T14:54:00,pth,9.60
2023-05-14T14:55:00,pth,6.00
2023-05-14T14:57:00,pth,13.20
2023-05-14T14:58:00,pth,2.40
2023-05-14T14:59:00,pth,7.20
2023-05-14T15:01:00,pth,8.40
2023-05-14T15:02:00,pth,6.00
2023-05-14T15:04:00,pth,8.40
2023-05-14T15:05:00,pth,7.20
2023-05-14T15:06:00,pth,8.40
2023-05-14T15:08:00,pth,9.60
2023-05-14T15:09:00,pth,7.20
2023-05-14T15:11:00,pth,8.40
2023-05-14T15:13:00,pth,6.00
2023-05-14T15:14:00,pth,7.20
2023-05-14T15:15:00,pth,4.80
2023-05-14T15:17:00,pth,8.40
2023-05-14T15:18:00,pth,3.60
2023-05-14T15:20:00,pth,2.40
2023-05-14T15:22:00,pth,3.60
2023-05-14T15:24:00,pth,2.40
2023-05-14T15:25:00,pth,1.20
2023-05-14T15:27:00,pth,2.40
2023-05-14T15:29:00,pth,2.40
2023-05-14T15:31:00,pth,2.40
2023-05-14T15:33:00,pth,2.40
2023-05-14T15:34:00,pth,1.20
2023-05-14T15:35:00,pth,1.20
2023-05-14T15:36:00,pth,1.20
2023-05-14T15:38:00,pth,2.40
2023-05-14T15:39:00,pth,1.20
2023-05-14T15:41:00,pth,2.40
2023-05-14T15:43:00,pth,2.40
2023-05-14T15:44:00,pth,1.20
2023-05-14T15:46:00,pth,2.40
2023-05-14T15:47:00,pth,1.20
2023-05-14T15:49:00,pth,3.60
2023-05-14T15:51:00,pth,2.40
2023-05-14T15:53:00,pth,2.40
2023-05-14T15:55:00,pth,2.40
2023-05-14T15:56:00,pth,1.20
2023-05-14T15:57:00,pth,1.20
2023-05-14T15:59:00,pth,2.40
2023-05-14T16:01:00,pth,2.40
2023-05-14T16:03:00,pth,4.80
2023-05-14T16:04:00,pth,3.60
2023-05-14T16:06:00,pth,7.20
2023-05-14T16:07:00,pth,4.80
2023-05-14T16:09:00,pth,7.20
2023-05-14T16:11:00,pth,7.20
2023-05-14T16:12:00,pth,3.60
2023-05-14T16:14:00,pth,3.60
2023-05-14T16:15:00,pth,1.20
2023-05-14T16:17:00,pth,3.60
2023-05-14T16:18:00,pth,3.60
2023-05-14T16:19:00,pth,3.60
2023-05-14T16:20:00,pth,1.20
2023-05-14T16:22:00,pth,2.40
2023-05-14T16:24:00,pth,4.80
2023-05-14T16:26:00,pth,6.00
2023-05-14T16:28:00,pth,1.20
2023-05-14T16:29:00,pth,1.20
2023-05-14T16:31:00,pth,6.00
2023-05-14T16:33:00,pth,3.60
2023-05-14T16:35:00,pth,2.40
2023-05-14T16:37:00,pth,4.80
2023-05-14T16:39:00,pth,4.80
2023-05-14T16:41:00,pth,1.20
2023-05-14T16:42:00,pth,1.20
2023-05-14T16:43:00,pth,3.60
2023-05-14T16:44:00,pth,3.60
2023-05-14T16:46:00,pth,2.40
2023-05-14T16:47:00,pth,1.20
2023-05-14T16:49:00,pth,4.80
2023-05-14T16:51:00,pth,4.80
2023-05-14T16:52:00,pth,1.20
2023-05-14T16:54:00,pth,2.40
2023-05-14T16:56:00,pth,7.20
2023-05-14T16:58:00,pth,7.20
2023-05-14T17:00:00,pth,6.00
2023-05-14T17:02:00,pth,3.60
2023-05-14T17:04:00,pth,6.00
2023-05-14T17:06:00,pth,7.20
2023-05-14T17:07:00,pth,2.40
2023-05-14T17:09:00,pth,6.00
2023-05-14T17:11:00,pth,2.40
2023-05-14T17:14:00,pth,6.00
2023-05-14T17:16:00,pth,7.20
2023-05-14T17:18:00,pth,2.40
2023-05-14T17:20:00,pth,2.40
2023-05-14T17:21:00,pth,1.20
2023-05-14T17:23:00,pth,2.40
2023-05-14T17:26:00,pth,2.40
2023-05-14T17:27:00,pth,1.20
2023-05-14T17:29:00,pth,2.40
2023-05-14T17:31:00,pth,1.20
2023-05-14T17:32:00,pth,1.20
2023-05-14T17:34:00,pth,2.40
2023-05-14T17:35:00,pth,1.20
2023-05-14T17:37:00,pth,1.20
2023-05-14T17:39:00,pth,2.40
2023-05-14T17:41:00,pth,1.20
2023-05-14T17:43:00,pth,1.20
2023-05-14T17:45:00,pth,2.40
2023-05-14T17:46:00,pth,1.20
2023-05-14T17:48:00,pth,1.20
2023-05-14T17:49:00,pth,1.20
2023-05-14T17:51:00,pth,1.20
2023-05-14T17:52:00,pth,1.20
2023-05-14T17:54:00,pth,1.20
2023-05-14T17:56:00,pth,2.40
2023-05-14T17:58:00,pth,1.20
2023-05-14T17:59:00,pth,1.20
2023-05-14T18:01:00,pth,2.40
2023-05-14T18:02:00,pth,1.20
2023-05-14T18:04:00,pth,3.60
2023-05-14T18:05:00,pth,2.40
2023-05-14T18:07:00,pth,2.40
2023-05-14T18:09:00,pth,2.40
2023-05-14T18:11:00,pth,1.20
2023-05-14T18:12:00,pth,1.20
2023-05-14T18:13:00,pth,1.20
2023-05-14T18:15:00,pth,1.20
2023-05-14T18:16:00,pth,1.20
2023-05-14T18:18:00,pth,1.20
2023-05-14T18:19:00,pth,1.20
2023-05-14T18:21:00,pth,2.40
2023-05-14T18:23:00,pth,1.20
2023-05-14T18:25:00,pth,2.40
2023-05-14T18:27:00,pth,1.20
2023-05-14T18:29:00,pth,2.40
2023-05-14T18:31:00,pth,1.20
2023-05-14T18:33:00,pth,1.20
2023-05-14T18:35:00,pth,2.40
2023-05-14T18:38:00,pth,2.40
2023-05-14T18:41:00,pth,1.20
2023-05-14T18:43:00,pth,1.20
2023-05-14T18:45:00,pth,2.40
2023-05-14T18:47:00,pth,1.20
2023-05-14T18:49:00,pth,1.20
2023-05-14T18:51:00,pth,2.40
2023-05-14T18:53:00,pth,1.20
2023-05-14T18:55:00,pth,1.20
2023-05-14T18:57:00,pth,1.20
2023-05-14T18:59:00,pth,1.20
2023-05-14T19:01:00,pth,2.40
2023-05-14T19:03:00,pth,1.20
2023-05-14T19:05:00,pth,2.40
2023-05-14T19:07:00,pth,1.20
2023-05-14T19:09:00,pth,2.40
2023-05-14T19:11:00,pth,2.40
2023-05-14T19:13:00,pth,2.40
2023-05-14T19:14:00,pth,1.20
2023-05-14T19:16:00,pth,3.60
2023-05-14T19:17:00,pth,2.40
2023-05-14T19:18:00,pth,2.40
2023-05-14T19:20:00,pth,3.60
2023-05-14T19:22:00,pth,3.60
2023-05-14T19:23:00,pth,1.20
2023-05-14T19:24:00,pth,1.20
2023-05-14T19:26:00,pth,2.40
2023-05-14T19:28:00,pth,2.40
2023-05-14T19:30:00,pth,3.60
2023-05-14T19:32:00,pth,2.40
2023-05-14T19:34:00,pth,2.40
2023-05-14T19:35:00,pth,1.20
2023-05-14T19:36:00,pth,1.20
2023-05-14T19:38:00,pth,2.40
2023-05-14T19:39:00,pth,1.20
2023-05-14T19:40:00,pth,1.20
2023-05-14T19:42:00,pth,2.40
2023-05-14T19:43:00,pth,1.20
2023-05-14T19:45:00,pth,2.40
2023-05-14T19:47:00,pth,2.40
2023-05-14T19:49:00,pth,1.20
2023-05-14T19:50:00,pth,1.20
2023-05-14T19:51:00,pth,1.20
2023-05-14T19:52:00,pth,1.20
2023-05-14T19:54:00,pth,2.40
2023-05-14T19:56:00,pth,1.20
2023-05-14T19:58:00,pth,2.40
2023-05-14T20:00:00,pth,1.20
2023-05-14T20:02:00,pth,2.40
2023-05-14T20:03:00,pth,1.20
2023-05-14T20:05:00,pth,1.20
2023-05-14T20:06:00,pth,1.20
2023-05-14T20:07:00,pth,1.20
2023-05-14T20:08:00,pth,1.20
2023-05-14T20:09:00,pth,1.20
2023-05-14T20:11:00,pth,2.40
2023-05-14T20:13:00,pth,2.40
2023-05-14T20:14:00,pth,1.20
2023-05-14T20:16:00,pth,2.40
2023-05-14T20:17:00,pth,1.20
2023-05-14T20:19:00,pth,2.40
2023-05-14T20:21:00,pth,2.40
2023-05-14T20:23:00,pth,4.80
2023-05-14T20:24:00,pth,2.40
2023-05-14T20:25:00,pth,2.40
2023-05-14T20:27:00,pth,3.60
2023-05-14T20:29:00,pth,3.60
2023-05-14T20:30:00,pth,1.20
2023-05-14T20:32:00,pth,2.40
2023-05-14T20:33:00,pth,1.20
2023-05-14T20:34:00,pth,1.20
2023-05-14T20:36:00,pth,2.40
2023-05-14T20:37:00,pth,1.20
2023-05-14T20:39:00,pth,2.40
2023-05-14T20:40:00,pth,2.40
2023-05-14T20:42:00,pth,2.40
2023-05-14T20:44:00,pth,2.40
2023-05-14T20:46:00,pth,3.60
2023-05-14T20:48:00,pth,3.60
2023-05-14T20:49:00,pth,1.20
2023-05-14T20:50:00,pth,1.20
2023-05-14T20:52:00,pth,2.40
2023-05-14T20:53:00,pth,1.20
2023-05-14T20:55:00,pth,3.60
2023-05-14T20:57:00,pth,2.40
2023-05-14T20:59:00,pth,3.60
2023-05-14T21:01:00,pth,2.40
2023-05-14T21:02:00,pth,2.40
2023-05-14T21:03:00,pth,1.20
2023-05-14T21:05:00,pth,2.40
2023-05-14T21:07:00,pth,3.60
2023-05-14T21:09:00,pth,2.40
2023-05-14T21:10:00,pth,1.20
2023-05-14T21:11:00,pth,2.40
2023-05-14T21:12:00,pth,1.20
2023-05-14T21:14:00,pth,2.40
2023-05-14T21:16:00,pth,2.40
2023-05-14T21:18:00,pth,4.80
2023-05-14T21:20:00,pth,4.80
2023-05-14T21:21:00,pth,2.40
2023-05-14T21:22:00,pth,2.40
2023-05-14T21:24:00,pth,3.60
2023-05-14T21:26:00,pth,3.60
2023-05-14T21:28:00,pth,2.40
2023-05-14T21:30:00,pth,2.40
2023-05-14T21:31:00,pth,1.20
2023-05-14T21:33:00,pth,2.40
2023-05-14T21:35:00,pth,3.60
2023-05-14T21:37:00,pth,2.40
2023-05-14T21:39:00,pth,2.40
2023-05-14T21:40:00,pth,1.20
2023-05-14T21:42:00,pth,2.40
2023-05-14T21:44:00,pth,2.40
2023-05-14T21:46:00,pth,2.40
2023-05-14T21:47:00,pth,1.20
2023-05-14T21:48:00,pth,1.20
2023-05-14T21:50:00,pth,2.40
2023-05-14T21:52:00,pth,3.60
2023-05-14T21:53:00,pth,1.20
2023-05-14T21:55:00,pth,2.40
2023-05-14T21:57:00,pth,2.40
2023-05-14T21:58:00,pth,1.20
2023-05-14T21:59:00,pth,2.40
2023-05-14T22:01:00,pth,4.80
2023-05-14T22:02:00,pth,2.40
2023-05-14T22:04:00,pth,4.80
2023-05-14T22:06:00,pth,3.60
2023-05-14T22:08:00,pth,3.60
2023-05-14T22:10:00,pth,2.40
2023-05-14T22:11:00,pth,1.20
2023-05-14T22:12:00,pth,1.20
2023-05-14T22:15:00,pth,3.60
2023-05-14T22:17:00,pth,2.40
2023-05-14T22:20:00,pth,2.40
2023-05-14T22:22:00,pth,2.40
2023-05-14T22:23:00,pth,1.20
2023-05-14T22:24:00,pth,1.20
2023-05-14T22:25:00,pth,1.20
2023-05-14T22:27:00,pth,2.40
2023-05-14T22:28:00,pth,1.20
2023-05-14T22:29:00,pth,1.20
2023-05-14T22:31:00,pth,2.40
2023-05-14T22:33:00,pth,1.20
2023-05-14T22:35:00,pth,2.40
2023-05-14T22:36:00,pth,1.20
2023-05-14T22:37:00,pth,1.20
2023-05-14T22:38:00,pth,1.20
2023-05-14T22:40:00,pth,3.60
2023-05-14T22:41:00,pth,2.40
2023-05-14T22:42:00,pth,2.40
2023-05-14T22:44:00,pth,3.60
2023-05-14T22:45:00,pth,2.40
2023-05-14T22:47:00,pth,3.60
2023-05-14T22:48:00,pth,1.20
2023-05-14T22:50:00,pth,2.40
2023-05-14T22:51:00,pth,1.20
2023-05-14T22:53:00,pth,3.60
2023-05-14T22:54:00,pth,1.20
2023-05-14T22:56:00,pth,3.60
2023-05-14T22:58:00,pth,2.40
2023-05-14T22:59:00,pth,1.20